Flag for Germany Weather past 2 weeks in Forchheim, Bavaria, Germany

Now
53 °F

Fog.


Feels Like: 53 °F
Forecast: 53 / 74 °F
Wind: No wind

Location: Bamberg

Current Time: Sep 17, 2014 at 1:48:30 AM

Latest Report: Sep 17, 2014 at 1:00 AM


Visibility: 4 mi

Pressure: 29.99 "Hg

Humidity: 100%

Dew point: 53 °F

Location of ForchheimLocation

Historic Weather in Forchheim — Graph

°F

Forchheim temperature yesterday

Maximum temperature yesterday: 73 °F (at 4:00 PM)
Minimum temperature yesterday: 49 °F (at 7:00 AM)
Average temperature yesterday: 60 °F

Past Weeks' High & Low Weather Summary

 TemperatureHumidityPressure
High78 °F (Sep 5, 3:00 PM)100% (Sep 2, 1:00 AM)30.19 "Hg (Sep 2, 1:00 AM)
Low43 °F (Sep 11, 5:00 AM)47% (Sep 9, 5:00 PM)29.86 "Hg (Sep 6, 5:00 PM)
Average61 °F88%30.03 "Hg
* Reported Midnight between Sep 1 and Sep 2 — Midnight between Sep 16 and Sep 17, Forchheim, Weather by CustomWeather, © 2014

Note: Actual official high and low records may vary slightly from our data, if they occured in-between our weather recording intervals... More about our weather records

Advertising

Forchheim weather history for previous 24 hours

 ConditionsComfort  
Time TempWeatherWind HumidityBarometerVisibility
12:00 AM
Sep 17
55 °FFog.No wind100%29.99 "Hg2 mi
11:00 PM
Sep 16
56 °FFog.1 mph99%30.00 "Hg3 mi
10:00 PM59 °FClear.1 mph98%30.00 "Hg5 mi
9:00 PM61 °FFog.1 mph98%29.99 "Hg4 mi
8:00 PM62 °FOvercast.1 mph96%29.97 "Hg6 mi
7:00 PM65 °FOvercast.1 mph84%29.96 "Hg16 mi
6:00 PM69 °FOvercast.1 mph74%29.96 "Hg25 mi
5:00 PM72 °FOvercast.2 mph63%29.96 "Hg31 mi
4:00 PM73 °FOvercast.2 mph62%29.97 "Hg34 mi
3:00 PM72 °FScattered clouds.2 mph63%29.98 "Hg28 mi
2:00 PM73 °FScattered clouds.3 mph63%29.99 "Hg25 mi
1:00 PM72 °FPartly sunny.3 mph63%30.00 "Hg19 mi
12:00 PM71 °FHaze.2 mph70%30.01 "Hg17 mi
11:00 AM66 °FScattered clouds.2 mph76%30.03 "Hg14 mi
10:00 AM63 °FSunny.1 mph89%30.04 "Hg10 mi
9:00 AM55 °FSunny.1 mph100%30.05 "Hg6 mi
8:00 AM50 °FSunny.1 mph100%30.05 "Hg2 mi
7:00 AM49 °FSunny.1 mph100%30.04 "Hg1 mi
6:00 AM49 °FClear.1 mph100%30.04 "Hg1 mi
5:00 AM50 °FFog.1 mph100%30.04 "Hg3 mi
4:00 AM51 °FFog.1 mph100%30.03 "Hg3 mi
3:00 AM52 °FFog.No wind100%30.04 "Hg3 mi
2:00 AM53 °FFog.No wind100%30.03 "Hg4 mi
1:00 AM54 °FFog.1 mph100%30.03 "Hg4 mi
Weather by CustomWeather, © 2014

See weather overviewHow to use our weather pages